TimeEST,TemperatureF,Dew PointF,Humidity,Sea Level PressureIn,VisibilityMPH,Wind Direction,Wind SpeedMPH,Gust SpeedMPH,PrecipitationIn,Events,Conditions,WindDirDegrees,DateUTC
12:53 AM,24.1,19.9,84,30.14,10.0,Calm,Calm,-,N/A,,Clear,0,2012-12-07 05:53:00
1:53 AM,21.9,19.0,89,30.14,10.0,Calm,Calm,-,N/A,,Clear,0,2012-12-07 06:53:00
2:53 AM,25.0,19.9,81,30.12,10.0,South,3.5,-,N/A,,Clear,180,2012-12-07 07:53:00
3:53 AM,28.0,21.0,75,30.09,10.0,South,3.5,-,N/A,,Clear,180,2012-12-07 08:53:00
4:53 AM,28.0,21.0,75,30.07,10.0,South,9.2,-,N/A,,Clear,170,2012-12-07 09:53:00
5:53 AM,32.0,19.0,59,30.06,10.0,South,6.9,-,N/A,,Clear,190,2012-12-07 10:53:00
6:53 AM,32.0,19.0,59,30.06,10.0,SSW,3.5,-,N/A,,Clear,200,2012-12-07 11:53:00
7:53 AM,30.9,21.0,67,30.06,10.0,South,3.5,-,N/A,,Clear,180,2012-12-07 12:53:00
8:53 AM,33.1,19.9,59,30.06,10.0,South,4.6,-,N/A,,Clear,180,2012-12-07 13:53:00
9:53 AM,35.1,19.0,52,30.07,10.0,SSW,3.5,-,N/A,,Clear,210,2012-12-07 14:53:00
10:53 AM,37.0,19.9,50,30.04,10.0,South,6.9,-,N/A,,Clear,180,2012-12-07 15:53:00
11:53 AM,37.9,19.9,48,30.03,10.0,SSE,3.5,-,N/A,,Scattered Clouds,160,2012-12-07 16:53:00
12:53 PM,39.0,21.0,49,30.02,10.0,SSE,10.4,-,N/A,,Clear,150,2012-12-07 17:53:00
1:53 PM,37.9,24.1,57,30.01,10.0,SSE,10.4,-,N/A,,Mostly Cloudy,150,2012-12-07 18:53:00
2:53 PM,37.9,24.1,57,30.01,10.0,SSE,6.9,-,N/A,,Mostly Cloudy,150,2012-12-07 19:53:00
3:53 PM,37.9,25.0,60,30.01,10.0,SSE,3.5,-,N/A,,Overcast,160,2012-12-07 20:53:00
4:53 PM,37.0,26.1,65,30.01,10.0,South,4.6,-,N/A,,Mostly Cloudy,180,2012-12-07 21:53:00
5:53 PM,35.1,26.1,70,30.01,10.0,Calm,Calm,-,N/A,,Clear,0,2012-12-07 22:53:00
6:53 PM,35.1,26.1,70,30.01,10.0,South,3.5,-,N/A,,Scattered Clouds,190,2012-12-07 23:53:00
7:53 PM,34.0,27.0,75,30.01,10.0,Calm,Calm,-,N/A,,Mostly Cloudy,0,2012-12-08 00:53:00
8:53 PM,33.1,27.0,78,30.01,10.0,Calm,Calm,-,N/A,,Overcast,0,2012-12-08 01:53:00
9:53 PM,30.9,27.0,85,30.02,10.0,Calm,Calm,-,N/A,,Partly Cloudy,0,2012-12-08 02:53:00
10:53 PM,30.0,27.0,88,30.02,10.0,Calm,Calm,-,N/A,,Overcast,0,2012-12-08 03:53:00
11:53 PM,32.0,28.0,85,30.02,10.0,Calm,Calm,-,N/A,,Overcast,0,2012-12-08 04:53:00